Back to catalog

STARLINK-11408

AliveCommunicationsVLEO
NORAD 63064·PAYLOAD·🇺🇸 United States

Launched Feb 21, 2025 from Cape Canaveral Space Force Station

Loading…

Next Passes (next 24 hours)

TLE

FreshSource: CelesTrak SupGP

Epoch: Sep 14, 2026, 20:33 UTC

1 63064C 25035N   26257.85673611 -.00056542  00000+0 -43895-3 0  2575
2 63064  43.0002 314.7314 0001640 276.3148 170.3046 15.70877710    10

Track STARLINK-11408 in real time with AllMySat

Download on the App Store